Regional Weather Roundup
Issued by NWS Little Rock, AR

Home | Current Version | Previous Version | Graphics & Text | Print | Product List | Glossary On
Versions: 1 2 3 4 5 6 7 8 9 10 11 12 13 14 15 16 17 18 19 20 21 22 23 24 25 26 27 28 29 30 31 32 33 34 35 36 37 38 39 40 41 42 43 44 45 46 47 48 49 50
000
ASUS44 KLZK 291505
RWRLZK

WEATHER ROUNDUP FOR ARKANSAS
NATIONAL WEATHER SERVICE LITTLE ROCK AR
900 AM CST THU JAN 29 2015

NOTE: "FAIR" INDICATES FEW OR NO CLOUDS BELOW 12,000 FEET WITH NO
SIGNIFICANT WEATHER AND/OR OBSTRUCTIONS TO VISIBILITY.

ARZ001-003-010-029-291600-
NORTHWEST ARKANSAS

CITY           SKY/WX    TMP DP  RH WIND       PRES   REMARKS
FAYETTEVILLE   MOSUNNY   48  36  63 NW14      30.21R
FORT SMITH     MOSUNNY   57  34  41 N9        30.19R
HARRISON       CLOUDY    47  37  68 NW15G21   30.17R
BENTONVILLE    CLOUDY    46  34  61 N14G21    30.22R
ROGERS         CLOUDY    45  36  70 N15G21    30.22R
SILOAM SPGS    MOSUNNY   46  32  57 N16G23    30.24R
HIGHFILL       CLOUDY    48  36  63 N17       30.21R
SPRINGDALE     MOSUNNY   48  36  61 NW14      30.21R
$$

ARZ004-005-016-291600-
NORTH CENTRAL ARKANSAS

CITY           SKY/WX    TMP DP  RH WIND       PRES   REMARKS
BATESVILLE     MOSUNNY   57  41  54 NW7       30.08R
FLIPPIN        MOSUNNY   50  36  57 NW16G23   30.15R
MTN HOME       PTSUNNY   49  38  65 NW10G22   30.13R
$$

ARZ040-041-291600-
WEST CENTRAL ARKANSAS

CITY           SKY/WX    TMP DP  RH WIND       PRES   REMARKS
MENA           PTSUNNY   59  37  44 N9        30.16R
MOUNT IDA      CLOUDY    59  38  45 NW8       30.11R
$$

ARZ009-017-025-026-028-291600-
NORTHEAST ARKANSAS

CITY           SKY/WX    TMP DP  RH WIND       PRES   REMARKS
CORNING        FAIR      55  43  62 NW13      30.05R
JONESBORO      SUNNY     55  44  66 W10       30.05R
NEWPORT        MOSUNNY   56  44  64 W8        30.08R
WALNUT RIDGE   SUNNY     55  39  54 NW21G26   30.05R
BLYTHEVILLE    SUNNY     55  44  66 SW13G22   30.04R
$$

ARZ022-023-033-042-044-291600-
CENTRAL ARKANSAS

CITY           SKY/WX    TMP DP  RH WIND       PRES   REMARKS
LITTLE ROCK    PTSUNNY   56  43  61 W9        30.11R
N LITTLE ROCK  PTSUNNY   55  47  75 W7        30.11R
JACKSONVILLE   PTSUNNY   55  45  69 SW8       30.10R
SEARCY         PTSUNNY   55  46  71 CALM      30.10R
HOT SPRINGS    CLOUDY    54  46  74 NW3       30.12R
RUSSELLVILLE   SUNNY     52  42  69 NW6       30.12R
CLINTON        FAIR      41  41 100 CALM      30.12R FOG
$$

ARZ036-291600-
EAST ARKANSAS

CITY           SKY/WX    TMP DP  RH WIND       PRES   REMARKS
WEST MEMPHIS   MOSUNNY   54  46  74 S9        30.07R
$$

ARZ050-053-066-070-073-291600-
SOUTHWEST ARKANSAS

CITY           SKY/WX    TMP DP  RH WIND       PRES   REMARKS
ARKADELPHIA    FAIR      55  48  77 SW3       30.14R
CAMDEN         MOSUNNY   57  48  72 MISG      30.15R
TEXARKANA      MOSUNNY   57  46  66 SW9       30.16R
EL DORADO      SUNNY     57  51  80 SW9       30.17R
DE QUEEN       PTSUNNY   46  44  93 CALM      30.15R
$$

ARZ056-057-069-291600-
SOUTHEAST ARKANSAS

CITY           SKY/WX    TMP DP  RH WIND       PRES   REMARKS
PINE BLUFF     PTSUNNY   56  46  69 SW14G21   30.11R
STUTTGART      CLOUDY    55  45  67 SW14      30.10R
MONTICELLO     SUNNY     56  48  74 SW9       30.13R

$$





USA.gov is the U.S. government's official web portal to all federal, state and local government web resources and services.